Find Starlink 2646

NORAD ID: 48642 Int'l Des: 2021-044 Owner: SPXS Country: US Constellation: starlink operational
LEOCIRCULAR

現在のビュー

3D地球を読み込み中...

About Starlink 2646

Starlink 2646 (NORAD 48642) is a starlink constellation satellite (v1.0) launched May 26, 2021 by SPXS of US. It operates in LEO, CIRCULAR orbit with a mass of 260.00 kg.

Starlink 2646について

説明を読み込み中...

次回通過

Passes for default location (London). Set your location on the main map for personalized predictions.

高度履歴

Loading altitude history...

軌道要素

1 48642U 21044E 26171.48177536 .00002427 00000-0 89916-4 0 9995
2 48642 53.1620 355.7246 0001408 88.9195 271.1968 15.31712144279571
Epoch: Jun 20, 2026 • Age: 17 hours

現在のステータス

高度 472.7 km
速度 7.63 km/s
衛星直下点 35.82°N, 40.58°E
打ち上げ日 May 26, 2021
運用期間 5 years
タイプ internet

技術仕様

分類 Payload
質量 260.00 kg
乾燥質量 248.00 kg
総質量 260.00 kg
長さ 0.20 m
直径 2.80 m
スパン 9.00 m
形状 Box + pan
製造者 SPXS
バスタイプ Starlink
フェーズステータス In Orbit
所有者/国 SPXS/US

Most Searched